DW9433 Weather Reports


time (UTC)temp
C
wind
direction
speed
KPH
gust
KPH
rain 1hr
cm
rain 24hr
cm
rain mn
cm
humidity
%
barometer
mb
20260510164505 27 355 0.0 0.0 0.00 0.00 0.00 61 1015.6
20260510163001 27 360 0.0 0.0 0.00 0.00 0.00 60 1015.7
20260510161600 27 277 0.0 0.0 0.00 0.00 0.00 63 1015.8
20260510160125 27 327 0.0 0.0 0.00 0.00 0.00 67 1015.8
20260510154606 27 209 0.0 0.0 0.00 0.00 0.00 65 1015.8
20260510153054 26 226 0.0 0.0 0.00 0.00 0.00 67 1015.6
20260510151549 26 202 0.0 0.0 0.00 0.00 0.00 73 1015.5
20260510150047 25 162 0.0 0.0 0.00 0.00 0.00 73 1015.6
20260510144548 25 39 0.0 3.2 0.00 0.00 0.00 76 1015.8
20260510143042 24 231 0.0 0.0 0.00 0.00 0.00 78 1015.8
20260510141537 23 281 0.0 0.0 0.00 0.00 0.00 79 1015.6
20260510140036 22 248 0.0 0.0 0.00 0.00 0.00 81 1015.4
20260510134530 22 260 0.0 1.6 0.00 0.00 0.00 82 1015.2
20260510133024 21 49 0.0 0.0 0.00 0.00 0.00 85 1015.5
20260510131528 20 48 0.0 0.0 0.00 0.00 0.00 88 1015.2
20260510130017 19 48 0.0 0.0 0.00 0.00 0.00 90 1015.3
20260510124512 18 48 0.0 0.0 0.00 0.00 0.00 91 1015.2
20260510123019 17 48 0.0 0.0 0.00 0.00 0.00 91 1015.1
20260510121506 16 48 0.0 0.0 0.00 0.00 0.00 92 1015.0
20260510120002 15 48 0.0 0.0 0.00 0.00 0.00 94 1015.0
20260510114559 14 48 0.0 0.0 0.00 0.00 0.00 94 1015.0
20260510113103 13 48 0.0 0.0 0.00 0.00 0.00 94 1014.9
20260510111555 13 48 0.0 0.0 0.00 0.00 0.00 93 1014.5
20260510110053 13 48 0.0 0.0 0.00 0.00 0.00 93 1014.3
20260510104601 13 48 0.0 0.0 0.00 0.00 0.00 92 1014.0
20260510103050 13 48 0.0 0.0 0.00 0.00 0.00 92 1013.7
20260510101549 13 48 0.0 0.0 0.00 0.00 0.00 92 1013.7
20260510100047 13 48 0.0 0.0 0.00 0.00 0.00 92 1013.5
20260510094558 13 48 0.0 0.0 0.00 0.00 0.00 91 1013.5
20260510093056 13 48 0.0 0.0 0.00 0.00 0.00 91 1013.2
20260510091545 13 48 0.0 0.0 0.00 0.00 0.00 91 1013.0
20260510090041 13 48 0.0 0.0 0.00 0.00 0.00 91 1012.8
20260510084540 13 48 0.0 0.0 0.00 0.00 0.00 90 1012.6
20260510083042 13 48 0.0 0.0 0.00 0.00 0.00 91 1012.8
20260510081537 13 48 0.0 0.0 0.00 0.00 0.00 90 1012.7
20260510080036 13 48 0.0 0.0 0.00 0.00 0.00 90 1012.6
20260510074536 13 48 0.0 0.0 0.00 0.00 0.00 90 1012.6
20260510073042 13 48 0.0 0.0 0.00 0.00 0.00 89 1012.5
20260510071532 13 48 0.0 0.0 0.00 0.00 0.00 89 1012.5
20260510070034 13 48 0.0 0.0 0.00 0.00 0.00 89 1012.5
20260510064530 13 48 0.0 0.0 0.00 0.00 0.00 88 1012.6
20260510063028 14 48 0.0 0.0 0.00 0.00 0.00 88 1012.4
20260510061525 14 48 0.0 0.0 0.00 0.00 0.00 88 1012.1
20260510060026 14 48 0.0 0.0 0.00 0.00 0.00 88 1012.0
20260510054524 14 48 0.0 0.0 0.00 0.00 0.00 88 1012.0
20260510053044 14 48 0.0 0.0 0.00 0.00 0.00 87 1012.0
20260510051521 15 48 0.0 0.0 0.00 0.00 0.00 86 1012.0
20260510050018 15 48 0.0 0.0 0.00 0.00 0.00 86 1012.0
20260510044518 15 48 0.0 0.0 0.00 0.00 0.00 85 1012.0
20260510043036 15 48 0.0 0.0 0.00 0.00 0.00 85 1011.9
20260510041523 15 48 0.0 0.0 0.00 0.00 0.00 84 1012.0
20260510040032 16 48 0.0 0.0 0.00 0.00 0.00 83 1012.1
20260510034516 16 48 0.0 0.0 0.00 0.00 0.00 83 1012.1
20260510033016 16 48 0.0 0.0 0.00 0.00 0.00 81 1012.1
20260510031521 17 48 0.0 0.0 0.00 0.00 0.00 80 1012.0
20260510030014 17 48 0.0 0.0 0.00 0.00 0.00 79 1011.9
20260510024515 17 48 0.0 0.0 0.00 0.00 0.00 76 1011.9
20260510023012 18 48 0.0 0.0 0.00 0.00 0.00 74 1011.8
20260510021522 18 48 0.0 0.0 0.00 0.00 0.00 73 1011.5
20260510020008 19 48 0.0 0.0 0.00 0.00 0.00 70 1011.2
20260510014506 20 48 0.0 0.0 0.00 0.00 0.00 68 1011.0
20260510013005 20 48 0.0 0.0 0.00 0.00 0.00 65 1010.8
20260510011505 21 48 0.0 0.0 0.00 0.00 0.00 62 1010.6
20260510010004 22 48 0.0 0.0 0.00 0.00 0.00 59 1010.4
20260510004504 23 48 0.0 0.0 0.00 0.00 0.00 57 1010.2
20260510003005 24 28 0.0 0.0 0.00 0.00 0.00 53 1010.0
20260510001503 25 28 0.0 0.0 0.00 0.00 0.00 47 1009.9
20260510000003 26 28 0.0 0.0 0.00 0.00 0.00 40 1009.7
20260509234502 26 28 0.0 0.0 0.00 0.00 0.00 38 1009.6
20260509233001 26 30 0.0 0.0 0.00 0.00 0.00 38 1009.4
20260509231601 27 33 0.0 0.0 0.00 0.00 0.00 36 1009.4
20260509230100 27 32 0.0 1.6 0.00 0.00 0.00 37 1009.3
20260509224600 27 24 0.0 0.0 0.00 0.00 0.00 38 1009.2
20260509223102 27 24 0.0 0.0 0.00 0.00 0.00 40 1009.2
20260509221558 27 25 0.0 0.0 0.00 0.00 0.00 39 1009.3
20260509214628 27 201 0.0 0.0 0.00 0.00 0.00 34 1009.4
20260509213056 28 201 0.0 0.0 0.00 0.00 0.00 37 1009.5
20260509211555 28 33 0.0 0.0 0.00 0.00 0.00 36 1009.6
20260509210105 28 147 0.0 6.4 0.00 0.00 0.00 37 1009.6
20260509204554 28 174 0.0 0.0 0.00 0.00 0.00 39 1009.7
20260509203102 28 113 0.0 4.8 0.00 0.00 0.00 37 1009.7
20260509201553 28 340 0.0 3.2 0.00 0.00 0.00 37 1009.8
20260509200051 28 341 0.0 0.0 0.00 0.00 0.00 34 1009.9
20260509194551 28 206 0.0 0.0 0.00 0.00 0.00 37 1010.1
20260509193055 28 258 0.0 0.0 0.00 0.00 0.00 37 1010.0
20260509191558 28 255 0.0 0.0 0.00 0.00 0.00 43 1010.1
20260509190051 27 36 0.0 6.4 0.00 0.00 0.00 43 1010.1
20260509184555 27 163 0.0 0.0 0.00 0.00 0.00 47 1010.2
20260509183050 27 162 0.0 4.8 0.00 0.00 0.00 46 1010.3
20260509181539 27 28 0.0 0.0 0.00 0.00 0.00 47 1010.4
20260509180038 27 30 0.0 4.8 0.00 0.00 0.00 49 1010.6
20260509174545 26 24 0.0 6.4 0.00 0.00 0.00 48 1010.6
20260509173034 26 38 0.0 0.0 0.00 0.00 0.00 51 1010.6
20260509171532 26 24 3.2 12.9 0.00 0.00 0.00 57 1010.6
20260509170029 26 15 0.0 3.2 0.00 0.00 0.00 57 1010.7